Regional Weather Roundup
Issued by NWS Grand Forks, ND

Home | Current Version | Previous Version | Graphics & Text | Print | Product List | Glossary On
Versions: 1 2 3 4 5 6 7 8 9 10 11 12 13 14 15 16 17 18 19 20 21 22 23 24 25 26 27 28 29 30 31 32 33 34 35 36 37 38 39 40 41 42 43 44 45 46 47 48 49 50
000
ASUS43 KFGF 251910
RWRFGF
PRAIRIE TO PINES  WEATHER ROUNDUP
NATIONAL WEATHER SERVICE EASTERN NORTH DAKOTA/GRAND FORKS ND
100 PM CST SUN JAN 25 2015

 **SATELLITE DATA USED TO AUGMENT SKY COVER AT AUTOMATED STATIONS**
 *****  WEATHER ACROSS EASTERN NORTH DAKOTA  *****

CITY           SKY/WX    TMP DP  RH WIND       PRES   REMARKS
GRAND FORKS    PTSUNNY   23  11  60 CALM      30.04F
GRAND FRKS AFB MOSUNNY   22  12  64 VRB1      30.04F
GRAND FRKS NWS   N/A     25 N/A N/A MISG        N/A
DEVILS LAKE    CLOUDY    21  16  79 SW8       29.98F WCI  12
FARGO          MOSUNNY   24  14  65 NW6       30.05R WCI  17
WAHPETON ARPT  CLEAR     23  18  80 NW7       30.05S WCI  15
$$

 ***** WEATHER ACROSS CENTRAL AND WESTERN NORTH DAKOTA  *****

CITY           SKY/WX    TMP DP  RH WIND       PRES   REMARKS
BISMARCK       CLOUDY    36  32  85 W9        29.99F
MINOT          CLOUDY    29  26  89 SE3       29.94F FOG
JAMESTOWN      CLOUDY    25  20  81 CALM      30.00S
MINOT AFB      CLOUDY    27  27  99 S5        29.94F WCI  22
GARRISON         N/A     34  30  85 W8        29.97R
WILLISTON      CLOUDY    38  29  70 S5        29.92F
DICKINSON      CLOUDY    39  29  67 W5        29.93F
HETTINGER      MOSUNNY   40  28  62 W7        29.96F
$$

 *****  OTHER AIRPORT OBSERVATIONS IN OUR AREA  *****

CITY           SKY/WX    TMP DP  RH WIND       PRES   REMARKS
WALHALLA         N/A     23  12  63 SW3       29.99F
GRAFTON AIRPOR NOT AVBL
VALLEY CITY AR NOT AVBL
CANDO          CLOUDY    21  18  86 SW8       29.98F WCI  12
CAVALIER APRT  FAIR      21  12  68 S7        30.01F WCI  13
GWINNER        CLOUDY    27  19  74 CALM      30.04F
SHEYENNE NWR     N/A     27  16  62 NW2       29.95S
ROLLA          CLOUDY    18  18 100 SW14      29.94S WCI   4
 ***** THE ABOVE OBSERVATIONS ARE NON NWS ARE NOT QUALITY
       CONTROLLED AND MAY MIS-REPORT RAIN FOR SNOW...
$$

  *****  WEATHER ACROSS NORTHERN MINNESOTA  *****

CITY           SKY/WX    TMP DP  RH WIND       PRES   REMARKS
FLAG ISLAND    CLOUDY     9   1  72 S9        30.02F WCI  -5
WARROAD        CLOUDY    12   3  67 CALM      30.03S
ROSEAU         CLOUDY    16   7  67 SW3       30.02F
HALLOCK        SUNNY     18   9  68 S6        30.04S WCI   9
THF RVR FALLS  PTSUNNY   18   9  68 CALM      30.03F
BAUDETTE       PTSUNNY   13   5  70 S5        30.02S WCI   5
WASKISH        CLOUDY    19   9  63 CALM      30.02S
CROOKSTON      PTSUNNY   19  12  73 CALM      30.05F
STEPHEN NDAWN    N/A     18   9  68 S5          N/A  WCI  11
GREENBUSH NDAW   N/A     18   9  68 SE3         N/A
$$
  *****  WEATHER ACROSS CENTRAL AND WEST MINNESOTA  *****

CITY           SKY/WX    TMP DP  RH WIND       PRES   REMARKS
FOSSTON        MOSUNNY   27  16  63 CALM      30.02R
BEMIDJI        CLOUDY    24  15  70 S7        30.00S WCI  16
PARK RAPIDS    CLOUDY    26  18  71 S5        30.00S WCI  20
ELBOW LAKE     FAIR      26  22  88 W8        30.01S WCI  17
WADENA         CLOUDY    25  18  74 SE3       30.00S
DETROIT LAKES  SUNNY     28  19  69 CALM      30.01S
MOORHEAD       SUNNY     25  19  80 NW3       30.05R
FERGUS FALLS   SUNNY     27  19  74 W5        30.04S WCI  21
MORRIS MN      CLOUDY    27  23  86 NW5       30.02S WCI  21
STAPLES        CLOUDY    25  16  68 CALM      30.01F
$$
  *****  WEATHER ELSEWHERE ACROSS MINNESOTA  *****

CITY           SKY/WX    TMP DP  RH WIND       PRES   REMARKS
DULUTH         LGT SNOW  20  13  74 E15       30.01S WCI   6
INTRNTL FALLS  CLOUDY    10   1  67 SE3       30.03F
ELY            PTSUNNY   16   7  67 CALM      30.04R
CLOQUET        FLURRIES  21  14  73 E9        30.03S WCI  11
WHEATON        SUNNY     23  19  86 NW7       30.06S WCI  15
BRAINERD       PTSUNNY   24  15  68 E5        30.03S WCI  18
HIBBING        CLOUDY    21  12  68 S5        30.02F WCI  15
ALEXANDRIA     CLOUDY    26  19  74 VRB5      30.01S WCI  20
SAINT CLOUD    MOSUNNY   24  14  65 E5        30.03S WCI  18
MINNEAPOLIS    MOSUNNY   24  13  62 NE9       30.03S WCI  14
$$

  *****  WEATHER ACROSS SOUTH DAKOTA  *****

CITY           SKY/WX    TMP DP  RH WIND       PRES   REMARKS
SIOUX FALLS    CLOUDY    35  32  88 N8        30.01S
BROOKINGS      NOT AVBL
WATERTOWN      CLOUDY    30  23  75 N6        30.00S WCI  24
HURON          CLOUDY    32  29  88 NW7       30.03F
SISSETON         N/A     25  19  78 NW6       30.03S WCI  18
ABERDEEN       CLOUDY    29  23  78 CALM      30.03F
MITCHELL       CLOUDY    35  32  88 NW6       30.05F
PIERRE         PTSUNNY   41  31  67 W16       30.02F
MOBRIDGE       CLOUDY    40  31  70 NW9       29.98S
RAPID CITY     CLOUDY    47  18  31 S3        30.01F
$$

  *****  SOME WEATHER IN NEARBY STATES *****

CITY           SKY/WX    TMP DP  RH WIND       PRES   REMARKS
GLASGOW MT     MOSUNNY   38  30  73 SE5       29.87F
GREAT FALLS MT CLOUDY    54  35  48 SW23      30.01R
CHEYENNE WY    CLOUDY    49  26  41 NW23G33   30.13F
SCOTTSBLUFF NE LGT RAIN  45  35  68 NW12      30.10F
OMAHA NE       CLOUDY    40  33  76 N20       29.98R
DES MOINES IA  CLOUDY    34  29  82 NE12      29.92S
DAVENPORT IA   LGT SNOW  29  25  85 NE23      29.83R FOG     WCI  15
CHICAGO IL     LGT SNOW  29  25  85 NE22G32   29.81S FOG     WCI  15
EAU CLAIRE WI  PTSUNNY   22  11  62 E12       30.01F WCI  10
LA CROSSE WI   PTSUNNY   30  16  56 NE7       30.00S WCI  23
$$

  *****  SOME NATIONAL WEATHER *****

CITY           SKY/WX    TMP DP  RH WIND       PRES   REMARKS
LA GUARDIA NY  CLOUDY    41  16  36 NW16      29.77F
RALEIGH NC     MOSUNNY   54  33  45 S7        29.87F
ATLANTA GA     SUNNY     57  30  35 SW14G21   29.81F
NEW ORLEANS LA MOSUNNY   66  41  40 SW15      29.95F
OKLAHOMA CITY  MOSUNNY   57  26  30 N29G41    30.00F
ALBUQUERQUE NM MOSUNNY   45  20  36 W3        30.31F
SALT LAKE CITY MOSUNNY   47  28  47 CALM      30.47S
LOS ANGELES CA MOSUNNY   75  27  17 CALM      30.04S
BOISE ID       MOSUNNY   39  33  79 CALM      30.47F
SEATTLE WA     PTSUNNY   58  48  69 CALM      30.17F
$$

*** WEATHER ACROSS MANITOBA...SASKATCHEWAN AND ONTARIO ***
                ***ONTARIO***

CITY           SKY/WX    TMP DP  RH WIND       PRES   REMARKS
GERALDTON      SUNNY      1  -8  66 S2        30.06F
THUNDER BAY    MOSUNNY    7  -8  51 CALM      30.15F
SIOUX LOOKOUT  MOSUNNY    5  -6  61 S6        30.02F WCI  -6
TORONTO        MOSUNNY   19  -2  38 N9        29.95S WCI   9
BIG TROUT LK   SUNNY     -8 -13  77 SE2       30.01F
PICKLE LAKE    MOSUNNY    3  -8  60 SW6       30.00F WCI  -8
DRYDEN         PTSUNNY    9  -4  56 S8        30.01F WCI  -4
KENORA         CLOUDY     9  -2  61 S9        29.99F WCI  -5
$$
                *** MANITOBA***

CITY           SKY/WX    TMP DP  RH WIND       PRES   REMARKS
BRANDON        CLOUDY    16  14  93 SW9       29.93F WCI   4
DAUPHIN        SUNNY     23  18  80 SW12      29.85F WCI  12
ISLAND LAKE    FLURRIES   1  -4  78 SE7       29.89F WCI -11
PILOT MOUND      N/A     18  16  93 S13         N/A  WCI   4
THE PAS        LGT SNOW  16  12  86 SE12      29.68F WCI   3
THOMPSON       FLURRIES   1  -2  85 S5        29.74F WCI  -8
WINNIPEG       PTSUNNY   19  10  68 S10       30.01F WCI   8
LYNN LAKE      LGT SNOW   3   1  92 SE10      29.56F WCI -12
CHURCHILL      CLOUDY   -11 -15  84 SE10      29.93F WCI -30
GILLAM         CLOUDY     1  -6  71 SE8       29.87F WCI -12
$$
                ***SASKATCHEWAN***

CITY           SKY/WX    TMP DP  RH WIND       PRES   REMARKS
ESTEVAN        CLOUDY    32  30  93 S8        29.89F WCI  25
KINDERSLEY     MOSUNNY   37  32  81 W10       29.69S
LLOYDMINSTER   PTSUNNY   43  32  65 W20       29.63R
PRINCE ALBERT  LGT RAIN  36  28  75 SW14      29.56F
REGINA         PTSUNNY   32  32 100 SE12      29.80F WCI  23
YORKTON        CLOUDY    23  21  93 S12       29.78F WCI  12
N. BATTLEFORD  PTSUNNY   39  32  75 W12G17    29.65R
LA RONGE       MOSUNNY   32  30  93 S14G20    29.42F WCI  22
SASKATOON      PTSUNNY   36  28  75 SW15      29.66F
SWIFT CURRENT  SUNNY     45  36  70 W21G29    29.70F
$$
NOTE: THESE ARE AUTOMATED STATIONS WITH LIMITED QUALITY CONTROL
      "FAIR" INDICATES FEW OR NO CLOUDS BELOW 12,000 FEET WITH NO
      SIGNIFICANT WEATHER AND/OR OBSTRUCTIONS TO VISIBILITY.
      SKY/WX - SKY CONDITION AND SIGNIFICANT WEATHER.
      TMP - AIR TEMPERATURE.    DP   - DEWPOINT TEMPERATURE.
      RH  - RELATIVE HUMIDITY.  PRES - PRESSURE.
      HX  - HEAT INDEX.         WCI  - WIND CHILL INDEX.
$


USA.gov is the U.S. government's official web portal to all federal, state and local government web resources and services.